COSMOS 2251 DEB, 35016

Orbit data source: Space-Track

COSMOS 2251 DEB, 35016 is space debris in LEO originally from a launch on Wed, 16 Jun 1993 UTC launched from the Plesetsk Missile And Space Complex (PKMTR). The debris from Iridium 33, an American commercial communications satellite, has been tracked extensively since its accidental collision with the defunct Russian satellite Cosmos 2251 in 2009. This event, occurring at high speed in low Earth orbit (LEO), generated thousands of pieces of space debris, significantly increasing the risk of further collisions. The Iridium 33 debris cloud has impacted space traffic management and orbital debris mitigation strategies, making it a subject of ongoing study in space situational awareness.

Loading next visibility...
Identifier
35016, 1993-036AGD
Orbit
LEO
Country
Flag of CISCIS
Related business
Manufacturer
Unknown
Mission
Spacecraft
Bus & Motor
Unknown
Mass
Unknown
Launch date (UTC)
1993-06-16 (33 years ago)
Launch vehicle
Unknown
Launch site
Plesetsk Missile And Space Complex (PKMTR)
Object type
Payload
Rocket body
Debris
Shape & HBR
Unknown shape, 0.1 m
Radar Cross Section
Small (<0.1 m²)

Expand to show TLE details & history
Last TLE update: 9 hours ago

TLE from 9 hours ago
0 COSMOS 2251 DEB
1 35016U 93036AGD 26121.20258368  .00000906  00000-0  30291-3 0  9995
2 35016  73.9317  36.9999 0113625 282.8077 228.9749 14.35387054887839
Epoch: 2026-05-01T04:51Z
TLE epoch observation values (Epoch: 2026-05-01T04:51:43.229Z)
Latitude
27.99625°
Longitude
-83.82975°
Altitude
830.772 km
Speed
7.412 km/s
True Right ascension
13h 52m 57s
True Declination
27° 51' 19"
Sunlit
Object was in full shadow at epoch
Visualization orbit readout
Latitude
Unknown
Longitude
Unknown
Altitude
Unknown
Speed
Unknown
Apparent Right ascension
Unknown
Apparent Declination
Unknown
Sunlit
N/A
Visualization observer readout
Local Sidereal Time
21:56:10
Azimuth
Unknown
Elevation
Unknown
Doppler factor
Unknown
Orbital elements
Apogee altitude
852.65 km
Perigee altitude
690.177 km
Semi-major axis
7,149.551 km
Eccentricity
0.01136
Inclination
73.9317°
RAAN
36.9999°
Arg. of periapsis
282.8077°
True anomaly
228.00173°
Mean anomaly
228.9749°
Eccentric anomaly
228.48741°
Mean motion
3.59025 °/min
Orbital period
100.27 mins
BSTAR
0.00030291
Loading maneuver chart data...
Computing Atmospheric mass density...

Documentation

Showing up to 5 results
|